Regional Weather Roundup
Issued by NWS

Home | Current Version | Previous Version | Text Only | Print | Product List | Glossary On
Versions: 1 2 3 4 5 6 7 8 9 10 11 12 13 14 15 16 17 18 19 20 21 22 23 24 25 26 27 28 29 30 31 32 33 34 35 36 37 38 39 40 41 42 43 44 45 46 47 48 49 50
000
ASUS43 KLMK 071810
RWRKY
KENTUCKY REGIONAL WEATHER ROUNDUP
NATIONAL WEATHER SERVICE LOUISVILLE KY
100 PM EST SUN FEB 07 2016

NOTE "FAIR" INDICATES FEW OR NO CLOUDS BELOW 12,000 FEET
WITH NO SIGNIFICANT WEATHER AND/OR OBSTRUCTIONS TO VISIBILITY.

KYZ001>023-026-027-061>063-070>075-071900-
WESTERN AND SOUTH CENTRAL KENTUCKY

CITY           SKY/WX    TMP DP  RH WIND       PRES   REMARKS
PADUCAH        SUNNY     56  24  29 SW16G25   30.05F
HENDERSON      CLOUDY    54  30  40 S17       30.02F
OWENSBORO      SUNNY     54  32  43 SW15G21   30.04F
HOPKINSVILLE   SUNNY     54  22  29 SW16      30.08F
BOWLING GREEN  SUNNY     54  23  30 SW14      30.10F
GLASGOW        SUNNY     52  24  32 SW7       30.09F
$$

KYZ024-025-028>034-038-045-046-053-071900-
NORTH CENTRAL KENTUCKY

CITY           SKY/WX    TMP DP  RH WIND       PRES   REMARKS
LOUISVILLE/SDF MOSUNNY   54  21  27 SW12      30.04F
LOUISVILLE/LOU SUNNY     52  22  30 SW13      30.05F
FORT KNOX      SUNNY     53  24  32 S16G22    30.03F
$$

KYZ035>037-039>044-047>052-055>060-089>105-071900-
NORTHEAST KENTUCKY

CITY           SKY/WX    TMP DP  RH WIND       PRES   REMARKS
LEXINGTON      MOSUNNY   51  22  31 SW15      30.05F
COVINGTON      MOSUNNY   50  23  34 SW12G18   30.01F
FRANKFORT      MOSUNNY   51  20  29 SW14      30.04F
$$

KYZ054-064>069-076>088-106>120-071900-
SOUTHEAST KENTUCKY

CITY           SKY/WX    TMP DP  RH WIND       PRES   REMARKS
JACKSON        SUNNY     51  21  30 VRB6      30.07F
LONDON         SUNNY     49  21  33 SW9       30.09F
SOMERSET       MOSUNNY   48  23  37 W5        30.10F
MIDDLESBORO    SUNNY     50  22  33 CALM      30.09F
MONTICELLO     PTCLDY    50  23  34 W15       30.11F
$$




USA.gov is the U.S. government's official web portal to all federal, state and local government web resources and services.